Regional Weather Roundup
Issued by NWS San Angelo, TX

Home | Current Version | Previous Version | Graphics & Text | Print | Product List | Glossary Off
Versions: 1 2 3 4 5 6 7 8 9 10 11 12 13 14 15 16 17 18 19 20 21 22 23 24 25 26 27 28 29 30 31 32 33 34 35 36 37 38 39 40 41 42 43 44 45 46 47 48 49 50

732
ASUS44 KSJT 221610
RWRSJT
WEST CENTRAL TEXAS REGIONAL WEATHER ROUNDUP
NATIONAL WEATHER SERVICE SAN ANGELO TX
1100 AM CDT FRI MAY 22 2015

NOTE: "FAIR" INDICATES FEW OR NO CLOUDS BELOW 12,000 FEET WITH NO
SIGNIFICANT WEATHER AND/OR OBSTRUCTIONS TO VISIBILITY.

TXZ049-054-064>066-071>073-076>078-098-099-113-114-127-128-139-140-
154-155-168>170-221700
...LOCATIONS ACROSS WEST CENTRAL TEXAS...

CITY           SKY/WX    TMP DP  RH WIND       PRES   REMARKS
SAN ANGELO     CLOUDY    66  62  87 E6        30.10S
ABILENE        CLOUDY    62  60  93 S13       30.12S FOG
DYESS AFB      CLOUDY    62  58  87 S12       30.10S
JUNCTION       CLOUDY    65  64  97 E7        30.09F
SWEETWATER     CLOUDY    61  61 100 SE13      30.14S
BROWNWOOD      CLOUDY    64  63  94 SE8       30.13S FOG
COLEMAN        CLOUDY    63  63 100 SE10      30.12F
SONORA         CLOUDY    66  66 100 SE6       30.14S
OZONA          CLOUDY    68  64  88 S9        30.12S FOG
BRADY          CLOUDY    63  63 100 SE8       30.12R FOG
$$

TEXAS PANHANDLE/OKLAHOMA PANHANDLE

CITY           SKY/WX    TMP DP  RH WIND       PRES   REMARKS
AMARILLO       CLOUDY    53  51  93 SE12      30.14F
BORGER         CLOUDY    58  52  80 S13       30.13F
CANADIAN       CLOUDY    55  54  96 SE14      30.14F
DALHART        CLOUDY    54  51  90 S15       30.13S
DUMAS          CLOUDY    53  50  91 S13       30.13S
GUYMON         NOT AVBL
HEREFORD       CLOUDY    56  54  93 MISG      30.15S
PAMPA          CLOUDY    54  52  95 S16       30.14S FOG
PERRYTON       CLOUDY    53  52  94 SE16      30.14S
$$

SOUTHERN PANHANDLE/SOUTH PLAINS/ROLLING PLAINS

CITY           SKY/WX    TMP DP  RH WIND       PRES   REMARKS
LUBBOCK        CLOUDY    56  54  93 SE8       30.14S
SNYDER         DRIZZLE   58  58  97 CALM      30.13S
CHILDRESS      CLOUDY    57  55  93 E9        30.15R
SEMINOLE       CLOUDY    58  57  99 E5        30.13S
$$

PERMIAN BASIN

CITY           SKY/WX    TMP DP  RH WIND       PRES   REMARKS
MIDLAND        CLOUDY    62  60  93 E3        30.10S FOG
ODESSA         CLOUDY    61  59  93 E7        30.11S FOG
WINK           CLOUDY    63  58  83 CALM      30.09S
$$

FAR WEST/SOUTHWEST MOUNTAINS/TRANS PECOS

CITY           SKY/WX    TMP DP  RH WIND       PRES   REMARKS
ALPINE         MOSUNNY   67  60  77 CALM      30.19S
DRYDEN           N/A     72  66  81 S7        30.06S
EL PASO        MOSUNNY   65  54  67 CALM      30.07F
FORT STOCKTON  CLOUDY    63  60  90 VRB5      30.10S
GUADALUPE PASS CLOUDY    56  53  90 S5        30.17S
MARFA          PTSUNNY   66  59  77 S7        30.17S
PECOS          CLOUDY    60  57  91 CALM      30.11S
$$

DALLAS/FORT WORTH METROPLEX

CITY           SKY/WX    TMP DP  RH WIND       PRES   REMARKS
DFW AIRPORT    CLOUDY    60  53  77 SE14      30.15S
FTW MEACHAM    CLOUDY    62  59  90 E8        30.15S
DAL-EXECUTIVE  CLOUDY    60  54  80 E10       30.16S
GRAND PRAIRIE  CLOUDY    61  55  82 E12G21    30.17S
ADDISON        CLOUDY    63  52  67 SE12G17   30.18
MESQUITE       CLOUDY    61  54  77 E10       30.18S
LANCASTER      CLOUDY    61  52  73 E6        30.18R
$$

NORTH CENTRAL TEXAS

CITY           SKY/WX    TMP DP  RH WIND       PRES   REMARKS
SHRMAN/DENISON LGT RAIN  57  55  92 E10       30.18F
GAINESVILLE    LGT RAIN  56  54  93 E9        30.18F
BRIDGEPORT     LGT RAIN  60  60 100 SE8G17    30.16F
DENTON         CLOUDY    61  53  75 E15       30.15F
WAXAHACHIE     CLOUDY    59  59 100 E7        30.17F FOG
GRANBURY         N/A     63  61  93 E9        30.15F FOG
$$

WESTERN NORTH TEXAS

CITY           SKY/WX    TMP DP  RH WIND       PRES   REMARKS
WICHITA FALLS  CLOUDY    60  58  92 E14       30.14F
VERNON           N/A     59  55  87 NE6       30.16R THUNDER VSB 1
BRECKENRIDGE   CLOUDY    63  62  97 SE8       30.12S
COMANCHE       CLOUDY    62  62 100 SE10      30.14S FOG
$$

CENTRAL AND SOUTH CENTRAL TEXAS

CITY           SKY/WX    TMP DP  RH WIND       PRES   REMARKS
AUSTIN/BERGSTM CLOUDY    69  69 100 E6        30.10F FOG
WACO           CLOUDY    65  61  87 E8        30.14S
HILLSBORO      CLOUDY    62  59  91 E13       30.14F
TEMPLE         CLOUDY    64  61  88 E12       30.12F
KILLEEN-GRAY   CLOUDY    64  64  99 E10       30.12S
FORT HOOD      CLOUDY    64  63  98 E9        30.11F
GEORGETOWN     CLOUDY    66  66 100 E8        30.11F FOG
LAGO VISTA     LGT RAIN  67  66  96 E7        30.12F VSB<1/4
SAN MARCOS     CLOUDY    70  66  88 E6        30.10F FOG
NEW BRAUNFELS  LGT RAIN  71  69  93 E8        30.08F FOG
RANDOLPH AFB   CLOUDY    70  70 100 E7        30.08F
SAN ANTONIO    CLOUDY    72  68  87 E12       30.08F FOG
STINSON        CLOUDY    72  69  90 E12       30.06F FOG
PLEASANTON     NOT AVBL
LA GRANGE      CLOUDY    75  70  84 SE9       30.10R
GIDDINGS       CLOUDY    73  66  81 SE7       30.15S
$$

EAST TEXAS

CITY           SKY/WX    TMP DP  RH WIND       PRES   REMARKS
PARIS          MOSUNNY   63  46  55 E15       30.21S
CLARKSVILLE    NOT AVBL
TYLER          CLOUDY    64  54  69 E14       30.18F
LONGVIEW       PTSUNNY   64  53  67 E7        30.21S
PALESTINE      CLOUDY    63  60  88 E6        30.19S
NACOGDOCHES    CLOUDY    63  55  77 E6        30.19F
$$

TEXAS HILL COUNTRY AND EDWARDS PLATEAU

CITY           SKY/WX    TMP DP  RH WIND       PRES   REMARKS
LLANO          CLOUDY    66  66 100 SE5       30.15S FOG
HORSESHOE BAY  CLOUDY    67  65  96 E5        30.11S FOG
KERRVILLE      CLOUDY    65  64  96 E8        30.10F FOG
FREDERICKSBRG  CLOUDY    65  64  97 E6        30.11S FOG
ROCKSPRINGS    CLOUDY    66  66 100 SE12      30.11S FOG
HONDO          CLOUDY    70  68  93 E14       30.08F FOG
UVALDE         CLOUDY    69  67  93 E10       30.07S
DEL RIO        CLOUDY    72  68  87 SE10      30.03S
$$

SOUTHEAST TEXAS

CITY           SKY/WX    TMP DP  RH WIND       PRES   REMARKS
COLLEGE STN    CLOUDY    68  64  87 E10       30.13S
CALDWELL       CLOUDY    66  66 100 MISG      30.16S
CROCKETT       NOT AVBL
BRENHAM        CLOUDY    72  67  85 E8        30.14R
HUNTSVILLE     CLOUDY    65  61  87 E5        30.16F
CONROE         CLOUDY    66  61  84 NE8       30.16S
HOUSTON BUSH   CLOUDY    68  62  81 NE10      30.15R
HOUSTON HOBBY  CLOUDY    70  65  84 E7        30.14R
PERLAND        LGT RAIN  70  66  87 E12       30.15R
WHARTON        CLOUDY    75  70  83 E13       30.11S
$$

THE UPPER TEXAS COAST

CITY           SKY/WX    TMP DP  RH WIND       PRES   REMARKS
ORANGE         CLOUDY    69  61  76 NE6       30.18R
PORT ARTHUR    CLOUDY    70  63  78 NE9       30.15S
GALVESTON      CLOUDY    75  70  84 NE13      30.14R
ANGLETON       CLOUDY    71  68  90 NE10      30.12R
BAY CITY       CLOUDY    77  73  87 E16       30.10S
$$

TEXAS COASTAL BEND, RIO GRANDE PLAINS DEEP SOUTH TEXAS

CITY           SKY/WX    TMP DP  RH WIND       PRES   REMARKS
VICTORIA       LGT RAIN  76  73  91 E9        30.09S FOG
BEEVILLE       FAIR      80  77  91 E8        30.06S
ROCKPORT       NOT AVBL
PORT ARANSAS   PTSUNNY   81  76  85 SE12      30.04F
PORT LAVACA    RAIN      73  73  97 E7        30.09S
CORPUS CHRISTI PTSUNNY   84  75  74 SE15      30.03S
KINGSVILLE NAS PTSUNNY   84  79  85 SE9       30.03S
COTULLA        CLOUDY    73  69  87 E12       30.05S
LAREDO         PTSUNNY   80  71  74 SE8       30.05F
BROWNSVILLE    PTSUNNY   87  73  62 SE15      30.00S
PORT ISABEL    PTSUNNY   84  75  74 E14       30.00R
HEBBRONVILLE     N/A     82  71  69 SE12      30.05S
MCALLEN        PTSUNNY   86  75  69 SE6       30.02R
WESLACO        PTSUNNY   85  74  68 E6        30.01R
FALFURRIAS     PTSUNNY   84  74  72 SE7       30.01F
EDINBURG       PTSUNNY   85  74  68 SE6       30.02R
$$



USA.gov is the U.S. government's official web portal to all federal, state and local government web resources and services.